Location: Newark
(39.9581°N, 97.2014°W)
Time: 00:34:11
(UTC+00:00)

Envisat - Pass Details

Date: 25 January 2020
Orbit: 764 x 766 km, 98.1° (Epoch: 24 February)

Event Time Altitude Azimuth Distance (km) Brightness Sun altitude
Rises 00:43:48 0° 180° (S) 3,217 6.4 -12.7°
Reaches altitude 10° 00:46:10 10° 185° (S) 2,296 5.7 -13.1°
Maximum altitude 00:51:04 50° 261° (W) 970 4.0 -14.0°
Drops below altitude 10° 00:56:01 10° 336° (NNW) 2,311 5.6 -15.0°
Sets 00:58:24 0° 342° (NNW) 3,241 6.3 -15.4°
